Location: *
(42.5628°N, 2.3633°E)
Time: 03:47:27
(UTC+00:00)

Meteor 1-16 Rocket - Pass Details

Date: 30 March 2020
Orbit: 790 x 907 km, 81.2° (Epoch: 30 May)

Event Time Altitude Azimuth Distance (km) Brightness Sun altitude
Exits shadow 20:40:08 34° 202° (SSW) 1,285 5.0 -25.8°
Maximum altitude 20:42:28 74° 280° (W) 838 4.2 -26.2°
Drops below altitude 10° 20:47:56 10° 7° (N) 2,424 6.9 -27.0°
Sets 20:50:23 0° 9° (N) 3,377 7.7 -27.4°
